timestamp,wind_dir_avg,wind_spd_avg,wind_spd_max_dir,wind_spd_gust,battery_voltage,lat,long
2022-05-13 00:04:01+00:00,81.0,5.18,91.0,7.61,12.89,47.59359,-54.27349
2022-05-13 00:14:01+00:00,75.0,5.46,75.0,7.35,12.41,47.59359,-54.27349
2022-05-13 00:24:01+00:00,73.0,4.94,78.0,5.83,12.41,47.59359,-54.27349
2022-05-13 00:34:01+00:00,67.0,4.2,66.0,4.87,12.41,47.59359,-54.27349
2022-05-13 00:44:01+00:00,56.0,5.3,53.0,7.11,12.41,47.59359,-54.27349
2022-05-13 00:54:01+00:00,62.0,5.62,56.0,6.61,12.41,47.59359,-54.27349
2022-05-13 01:04:01+00:00,67.0,8.34,70.0,9.77,12.41,47.59359,-54.27349
2022-05-13 01:14:01+00:00,60.0,7.76,56.0,9.2,12.41,47.59359,-54.27349
2022-05-13 01:24:01+00:00,66.0,9.71,71.0,13.67,12.41,47.59359,-54.27349
2022-05-13 01:34:01+00:00,62.0,7.91,64.0,8.95,12.41,47.59359,-54.27349
2022-05-13 01:44:01+00:00,62.0,6.7,62.0,8.14,12.41,47.59359,-54.27349
2022-05-13 01:54:01+00:00,64.0,6.88,64.0,8.02,12.41,47.59359,-54.27349
2022-05-13 02:04:01+00:00,70.0,6.96,70.0,8.45,12.41,47.59359,-54.27349
2022-05-13 02:14:01+00:00,65.0,6.03,70.0,8.24,12.33,47.59359,-54.27349
2022-05-13 02:24:01+00:00,67.0,4.46,70.0,7.08,12.33,47.59359,-54.27349
2022-05-13 02:34:01+00:00,74.0,4.41,87.0,6.47,12.33,47.59359,-54.27349
2022-05-13 02:44:01+00:00,62.0,4.51,68.0,5.69,12.33,47.59359,-54.27349
2022-05-13 02:54:01+00:00,60.0,5.14,56.0,6.2,12.33,47.59359,-54.27349
2022-05-13 03:04:01+00:00,64.0,4.52,67.0,6.03,12.33,47.59359,-54.27349
2022-05-13 03:14:00+00:00,56.0,5.19,56.0,6.08,12.33,47.59359,-54.27349
2022-05-13 03:24:00+00:00,55.0,5.64,54.0,6.19,12.33,47.59359,-54.27349
2022-05-13 03:34:00+00:00,49.0,5.42,54.0,6.62,12.33,47.59359,-54.27349
2022-05-13 03:44:00+00:00,36.0,5.67,45.0,6.41,12.33,47.59359,-54.27349
2022-05-13 03:54:00+00:00,36.0,5.79,51.0,7.27,12.33,47.59359,-54.27349
2022-05-13 04:04:00+00:00,40.0,5.18,49.0,6.83,12.33,47.59359,-54.27349
2022-05-13 04:14:01+00:00,29.0,4.31,53.0,5.94,12.33,47.59359,-54.27349
2022-05-13 04:24:01+00:00,41.0,5.58,43.0,6.56,12.33,47.59359,-54.27349
2022-05-13 04:34:01+00:00,46.0,5.7,46.0,6.45,12.33,47.59359,-54.27349
2022-05-13 04:44:01+00:00,43.0,5.22,58.0,6.47,12.33,47.59359,-54.27349
2022-05-13 04:54:01+00:00,45.0,6.22,47.0,6.75,12.33,47.59359,-54.27349
2022-05-13 05:04:01+00:00,43.0,6.43,44.0,7.31,12.33,47.59359,-54.27349
2022-05-13 05:14:01+00:00,45.0,6.37,50.0,7.67,12.33,47.59359,-54.27349
2022-05-13 05:24:01+00:00,46.0,6.86,46.0,7.89,12.33,47.59359,-54.27349
2022-05-13 05:34:01+00:00,39.0,5.49,36.0,6.12,12.33,47.59359,-54.27349
2022-05-13 05:44:01+00:00,36.0,5.18,40.0,5.95,12.33,47.59359,-54.27349
2022-05-13 05:54:01+00:00,33.0,5.21,33.0,5.85,12.33,47.59359,-54.27349
2022-05-13 06:04:01+00:00,44.0,4.48,36.0,4.88,12.33,47.59359,-54.27349
2022-05-13 06:14:00+00:00,43.0,4.49,42.0,5.21,12.25,47.59359,-54.27349
2022-05-13 06:24:00+00:00,44.0,3.79,48.0,4.33,12.25,47.59359,-54.27349
2022-05-13 06:34:00+00:00,16.0,2.96,12.0,3.46,12.25,47.59359,-54.27349
2022-05-13 06:44:00+00:00,346.0,2.08,341.0,2.55,12.25,47.59359,-54.27349
2022-05-13 06:54:00+00:00,333.0,2.21,331.0,2.56,12.25,47.59359,-54.27349
2022-05-13 07:04:00+00:00,334.0,2.53,335.0,2.9,12.25,47.59359,-54.27349
2022-05-13 07:14:01+00:00,354.0,3.48,354.0,3.86,12.25,47.59359,-54.27349
2022-05-13 07:24:01+00:00,355.0,4.05,354.0,4.29,12.25,47.59359,-54.27349
2022-05-13 07:34:01+00:00,342.0,3.2,341.0,3.74,12.25,47.59359,-54.27349
2022-05-13 07:44:01+00:00,342.0,2.96,346.0,3.36,12.25,47.59359,-54.27349
2022-05-13 07:54:01+00:00,332.0,2.67,336.0,2.98,12.25,47.59359,-54.27349
2022-05-13 08:04:01+00:00,339.0,2.89,338.0,3.2,12.25,47.59359,-54.27349
2022-05-13 08:14:01+00:00,338.0,2.91,340.0,3.25,12.17,47.59359,-54.27349
2022-05-13 08:24:01+00:00,327.0,2.36,329.0,2.65,12.17,47.59359,-54.27349
2022-05-13 08:34:01+00:00,320.0,2.35,319.0,2.54,12.17,47.59359,-54.27349
2022-05-13 08:44:01+00:00,309.0,2.18,312.0,2.47,12.17,47.59359,-54.27349
2022-05-13 08:54:01+00:00,287.0,2.15,290.0,2.42,12.17,47.59359,-54.27349
2022-05-13 09:04:01+00:00,301.0,2.67,297.0,2.87,12.17,47.59359,-54.27349
2022-05-13 09:14:01+00:00,305.0,2.23,307.0,2.53,12.49,47.59359,-54.27349
2022-05-13 09:24:01+00:00,321.0,1.66,318.0,1.9,12.49,47.59359,-54.27349
2022-05-13 09:34:01+00:00,347.0,2.5,345.0,2.81,12.49,47.59359,-54.27349
2022-05-13 09:44:01+00:00,338.0,2.17,339.0,2.41,12.49,47.59359,-54.27349
2022-05-13 09:54:01+00:00,331.0,1.87,329.0,2.15,12.49,47.59359,-54.27349
2022-05-13 10:04:01+00:00,315.0,1.32,313.0,1.48,12.49,47.59359,-54.27349
2022-05-13 10:14:00+00:00,264.0,1.04,262.0,1.23,13.37,47.59359,-54.27349
2022-05-13 10:24:00+00:00,263.0,1.91,263.0,2.09,13.37,47.59359,-54.27349
2022-05-13 10:34:00+00:00,248.0,2.09,252.0,2.42,13.37,47.59359,-54.27349
2022-05-13 10:44:00+00:00,229.0,2.27,227.0,2.55,13.37,47.59359,-54.27349
2022-05-13 10:54:00+00:00,205.0,2.22,201.0,2.58,13.37,47.59359,-54.27349
2022-05-13 11:04:00+00:00,202.0,2.5,201.0,2.86,13.37,47.59359,-54.27349
2022-05-13 11:14:01+00:00,189.0,2.47,191.0,2.85,13.6,47.59359,-54.27349
2022-05-13 11:24:01+00:00,196.0,2.77,198.0,3.12,13.6,47.59359,-54.27349
2022-05-13 11:34:01+00:00,188.0,3.14,192.0,3.38,13.6,47.59359,-54.27349
2022-05-13 11:44:01+00:00,187.0,3.23,187.0,3.63,13.6,47.59359,-54.27349
2022-05-13 11:54:01+00:00,185.0,4.07,188.0,4.24,13.6,47.59359,-54.27349
2022-05-13 12:04:01+00:00,196.0,4.65,195.0,4.99,13.6,47.59359,-54.27349
2022-05-13 12:14:01+00:00,204.0,5.55,200.0,6.04,13.84,47.59359,-54.27349
2022-05-13 12:24:01+00:00,198.0,6.01,195.0,6.64,13.84,47.59359,-54.27349
2022-05-13 12:34:01+00:00,206.0,7.98,205.0,8.53,13.84,47.59359,-54.27349
2022-05-13 12:44:01+00:00,205.0,7.19,202.0,7.9,13.84,47.59359,-54.27349
2022-05-13 12:54:01+00:00,207.0,7.91,212.0,8.92,13.84,47.59359,-54.27349
2022-05-13 13:04:01+00:00,208.0,9.06,206.0,10.08,13.84,47.59359,-54.27349
2022-05-13 13:14:01+00:00,211.0,7.91,211.0,9.17,14.4,47.59359,-54.27349
2022-05-13 13:24:01+00:00,205.0,9.06,206.0,9.85,14.4,47.59359,-54.27349
2022-05-13 13:34:01+00:00,206.0,9.94,208.0,11.05,14.4,47.59359,-54.27349
2022-05-13 13:44:01+00:00,209.0,9.44,211.0,11.05,14.4,47.59359,-54.27349
2022-05-13 13:54:01+00:00,211.0,9.38,212.0,10.18,14.4,47.59359,-54.27349
2022-05-13 14:04:01+00:00,206.0,8.33,210.0,9.37,14.4,47.59359,-54.27349
2022-05-13 14:14:01+00:00,211.0,10.1,209.0,11.62,14.4,47.59359,-54.27349
2022-05-13 14:24:01+00:00,214.0,9.47,217.0,10.27,14.4,47.59359,-54.27349
2022-05-13 14:34:01+00:00,214.0,8.55,217.0,10.88,14.4,47.59359,-54.27349
2022-05-13 14:44:01+00:00,212.0,9.76,209.0,11.22,14.4,47.59359,-54.27349
2022-05-13 14:54:01+00:00,213.0,10.02,215.0,11.21,14.4,47.59359,-54.27349
2022-05-13 15:04:01+00:00,213.0,10.75,214.0,11.98,14.4,47.59359,-54.27349
2022-05-13 15:14:01+00:00,215.0,10.87,214.0,11.83,13.68,47.59359,-54.27349
2022-05-13 15:24:01+00:00,211.0,11.58,212.0,12.92,13.68,47.59359,-54.27349
2022-05-13 15:34:01+00:00,214.0,11.68,214.0,13.1,13.68,47.59359,-54.27349
2022-05-13 15:44:01+00:00,214.0,12.4,211.0,14.27,13.68,47.59359,-54.27349
2022-05-13 15:54:01+00:00,216.0,11.4,213.0,13.03,13.68,47.59359,-54.27349
2022-05-13 16:04:01+00:00,216.0,12.25,225.0,14.14,13.68,47.59359,-54.27349
2022-05-13 16:14:00+00:00,214.0,13.03,214.0,14.87,14.4,47.59359,-54.27349
2022-05-13 16:24:00+00:00,210.0,12.04,210.0,13.6,14.4,47.59359,-54.27349
2022-05-13 16:34:00+00:00,214.0,12.11,212.0,14.74,14.4,47.59359,-54.27349
2022-05-13 16:44:00+00:00,212.0,12.07,212.0,13.48,14.4,47.59359,-54.27349
2022-05-13 16:54:00+00:00,214.0,11.45,212.0,13.09,14.4,47.59359,-54.27349
2022-05-13 17:04:00+00:00,212.0,12.37,211.0,13.95,14.4,47.59359,-54.27349
2022-05-13 17:14:01+00:00,215.0,10.85,217.0,12.13,14.24,47.59359,-54.27349
2022-05-13 17:24:01+00:00,212.0,10.86,216.0,12.0,14.24,47.59359,-54.27349
2022-05-13 17:34:01+00:00,216.0,10.53,216.0,12.02,14.24,47.59359,-54.27349
2022-05-13 17:44:01+00:00,210.0,10.31,210.0,12.5,14.24,47.59359,-54.27349
2022-05-13 17:54:01+00:00,213.0,10.78,212.0,12.11,14.24,47.59359,-54.27349
2022-05-13 18:04:01+00:00,208.0,10.91,214.0,12.3,14.24,47.59359,-54.27349
2022-05-13 18:14:00+00:00,208.0,10.82,214.0,12.53,13.68,47.59359,-54.27349
2022-05-13 18:24:00+00:00,206.0,9.49,214.0,11.59,13.68,47.59359,-54.27349
2022-05-13 18:34:00+00:00,208.0,9.4,215.0,10.82,13.68,47.59359,-54.27349
2022-05-13 18:44:00+00:00,209.0,9.21,212.0,10.39,13.68,47.59359,-54.27349
2022-05-13 18:54:00+00:00,216.0,8.4,214.0,9.86,13.68,47.59359,-54.27349
2022-05-13 19:04:00+00:00,214.0,7.4,219.0,8.27,13.68,47.59359,-54.27349
2022-05-13 19:14:01+00:00,211.0,8.78,209.0,10.04,13.76,47.59359,-54.27349
2022-05-13 19:24:01+00:00,207.0,10.16,214.0,11.41,13.76,47.59359,-54.27349
2022-05-13 19:34:01+00:00,206.0,9.95,214.0,11.95,13.76,47.59359,-54.27349
2022-05-13 19:44:01+00:00,206.0,9.89,212.0,11.57,13.76,47.59359,-54.27349
2022-05-13 19:54:01+00:00,207.0,9.53,206.0,10.32,13.76,47.59359,-54.27349
2022-05-13 20:04:01+00:00,206.0,9.97,206.0,10.77,13.76,47.59359,-54.27349
2022-05-13 20:14:01+00:00,207.0,9.47,206.0,10.49,13.84,47.59359,-54.27349
2022-05-13 20:24:01+00:00,206.0,9.53,207.0,10.56,13.84,47.59359,-54.27349
2022-05-13 20:34:01+00:00,208.0,9.24,207.0,10.25,13.84,47.59359,-54.27349
2022-05-13 20:44:01+00:00,209.0,8.83,209.0,10.44,13.84,47.59359,-54.27349
2022-05-13 20:54:01+00:00,210.0,9.12,209.0,10.34,13.84,47.59359,-54.27349
2022-05-13 21:04:01+00:00,210.0,9.36,204.0,11.31,13.84,47.59359,-54.27349
2022-05-13 21:14:01+00:00,210.0,8.57,211.0,9.78,13.84,47.59359,-54.27349
2022-05-13 21:24:01+00:00,215.0,7.03,223.0,8.75,13.84,47.59359,-54.27349
2022-05-13 21:34:01+00:00,210.0,7.71,213.0,8.46,13.84,47.59359,-54.27349
2022-05-13 21:44:01+00:00,213.0,5.91,216.0,6.79,13.84,47.59359,-54.27349
2022-05-13 21:54:01+00:00,214.0,6.0,214.0,6.9,13.84,47.59359,-54.27349
2022-05-13 22:04:01+00:00,223.0,7.49,238.0,9.92,13.84,47.59359,-54.27349
2022-05-13 22:14:01+00:00,235.0,5.66,253.0,9.73,13.44,47.59359,-54.27349
2022-05-13 22:24:01+00:00,250.0,8.19,250.0,9.97,13.44,47.59359,-54.27349
2022-05-13 22:34:01+00:00,255.0,5.24,260.0,7.84,13.44,47.59359,-54.27349
2022-05-13 22:44:01+00:00,270.0,5.41,269.0,7.44,13.44,47.59359,-54.27349
2022-05-13 22:54:01+00:00,257.0,6.81,263.0,11.55,13.44,47.59359,-54.27349
2022-05-13 23:04:01+00:00,291.0,3.83,291.0,4.23,13.44,47.59359,-54.27349
2022-05-13 23:14:00+00:00,290.0,3.32,293.0,3.56,12.97,47.59359,-54.27349
2022-05-13 23:24:00+00:00,186.0,2.45,173.0,3.45,12.97,47.59359,-54.27349
2022-05-13 23:34:00+00:00,321.0,5.22,324.0,6.39,12.97,47.59359,-54.27349
2022-05-13 23:44:00+00:00,31.0,3.08,34.0,3.71,12.97,47.59359,-54.27349
2022-05-13 23:54:00+00:00,359.0,4.77,353.0,5.32,12.97,47.59359,-54.27349
